OBJECT BA (43806 NORAD) Tracking and Keplerian Element Data

This shows tracking and keplerian element data for the satellite.

Feedback or suggestion? Click here.




ElementValue
Catalog43806
NameOBJECT BA
Epoch Orbit1377
Epoch Day66.97893953
Epoch Year2019
RAAN140.1507
Inclination97.7524
Eccentricity0.001393
Argument of Perigee313.9657
Mean Anonmoly46.0414
Mean Motion14.95203778
Decay Rate-2.49E-06
L11 43806U 18099BA 19066.97893953 -.00000249 00000-0 -17360-4 0 9991
L22 43806 97.7524 140.1507 0013930 313.9657 46.0414 14.95203778 13778

Live tracking and technical data element details for OBJECT BA (NORAD 43806). OBJECT BA can be tracked NOW for your location showing map with azimuth and elevation plus other details from your city location.

Track the satellite on the map from your city or location and see movement details for azimuth, elevation, latitude, longitude, range, height, and movement on the map or in text.







IsCatalogInMostPopularTable: catalog: 43806, numindb: 93
Update: records affected: 1



GetName: 43806 OBJECT BA

Hit Count: updated at: Tue, 17 Sep 2019 21:23:12 GMT